Jaffrey, NH

10:06 AM EDT on August 27, 2016 (GMT -0400)
Jaffrey Airport-Silver Ranch

Weather History for KAFN - April, 2014

Change the Weather History Date:

Tuesday, April 1, 2014

  Actual Average Record
Temperature  
Mean Temperature 40 °F -  
Max Temperature 53 °F 44 °F 70 °F (2016)
Min Temperature 27 °F 26 °F 19 °F (2003)
Degree Days  
Heating Degree Days 26    
Moisture  
Dew Point 26 °F    
Average Humidity 63    
Maximum Humidity 89    
Minimum Humidity 38    
Precipitation  
Precipitation 0.00 in - - ()
Sea Level Pressure  
Sea Level Pressure 30.07 in    
Wind  
Wind Speed 2 mph (NNW)    
Max Wind Speed 7 mph    
Max Gust Speed -    
Visibility 10 miles    
Events      
Averages and records for this station are not official NWS values.
T = Trace of Precipitation, MM = Missing Value Source: NWS Daily Summary

Daily Weather History Graph

Daily Weather History Graph

Search for Another Location

Airport or City:

Trip Planner

Search our weather history database for the weather conditions in past years. The results will help you decide how hot, cold, wet, or windy it might be!

Date:

Astronomy

Apr. 01, 2014 Rise Set
Actual Time 6:30 AM EDT 7:14 PM EDT
Civil Twilight 6:01 AM EDT 7:42 PM EDT
Nautical Twilight 5:27 AM EDT 8:16 PM EDT
Astronomical Twilight 4:52 AM EDT 8:51 PM EDT
Moon 7:28 AM EDT (4/1) 9:37 PM EDT (4/1)
Length of Visible Light 13h 41m
Length of Day
12h 43m
Waxing Crescent, 4% of the Moon is Illuminated
Apr 1
Waxing Crescent
Apr 7
First Quarter
Apr 15
Full
Apr 22
Last Quarter
Apr 29
New

Hourly Weather History & Observations

Time (EDT) Temp. Windchill Dew Point Humidity Pressure Visibility Wind Dir Wind Speed Gust Speed Precip Events Conditions
12:52 AM 32.0 °F - 24.1 °F 73% 30.06 in 10.0 mi Calm Calm - N/A   Partly Cloudy
1:52 AM 30.0 °F - 25.0 °F 82% 30.06 in 10.0 mi Calm Calm - N/A   Clear
2:52 AM 30.9 °F 26.2 °F 24.1 °F 76% 30.07 in 10.0 mi North 4.6 mph - N/A   Clear
3:52 AM 30.0 °F 25.2 °F 23.0 °F 75% 30.06 in 10.0 mi North 4.6 mph - N/A   Clear
4:52 AM 28.9 °F - 24.1 °F 82% 30.07 in 10.0 mi Calm Calm - N/A   Clear
5:52 AM 27.0 °F - 24.1 °F 89% 30.07 in 10.0 mi Calm Calm - N/A   Clear
6:52 AM 27.0 °F - 24.1 °F 89% 30.08 in 10.0 mi Calm Calm - N/A   Clear
7:52 AM 30.9 °F 27.5 °F 24.1 °F 76% 30.09 in 10.0 mi Variable 3.5 mph - N/A   Clear
8:52 AM 36.0 °F 33.3 °F 24.1 °F 62% 30.10 in 10.0 mi Variable 3.5 mph - N/A   Clear
9:52 AM 39.9 °F 35.8 °F 24.1 °F 53% 30.10 in 10.0 mi Variable 5.8 mph - N/A   Clear
10:52 AM 42.1 °F 40.2 °F 25.0 °F 51% 30.09 in 10.0 mi Variable 3.5 mph - N/A   Clear
11:52 AM 45.0 °F - 26.1 °F 48% 30.08 in 10.0 mi Calm Calm - N/A   Clear
12:52 PM 46.9 °F - 27.0 °F 46% 30.07 in 10.0 mi Variable 4.6 mph - N/A   Clear
1:52 PM 48.9 °F - 27.0 °F 43% 30.06 in 10.0 mi North 6.9 mph - N/A   Clear
2:52 PM 51.1 °F - 28.0 °F 41% 30.04 in 10.0 mi NNW 6.9 mph - N/A   Clear
3:52 PM 51.1 °F - 28.0 °F 41% 30.03 in 10.0 mi WNW 5.8 mph - N/A   Clear
4:52 PM 52.0 °F - 27.0 °F 38% 30.04 in 10.0 mi Calm Calm - N/A   Clear
5:52 PM 51.1 °F - 28.0 °F 41% 30.04 in 10.0 mi Calm Calm - N/A   Clear
6:52 PM 42.1 °F - 30.0 °F 62% 30.04 in 10.0 mi Calm Calm - N/A   Clear
7:52 PM 37.9 °F - 30.9 °F 76% 30.06 in 10.0 mi Calm Calm - N/A   Clear
8:52 PM 41.0 °F 37.1 °F 28.9 °F 62% 30.09 in 10.0 mi SSE 5.8 mph - N/A   Clear
9:52 PM 39.9 °F - 28.0 °F 63% 30.10 in 10.0 mi Calm Calm - N/A   Clear
10:52 PM 36.0 °F - 28.0 °F 73% 30.11 in 10.0 mi Calm Calm - N/A   Clear
11:52 PM 34.0 °F - 28.0 °F 79% 30.12 in 10.0 mi Calm Calm - N/A   Clear